Regional Weather Roundup
Issued by NWS

Home | Current Version | Previous Version | Graphics & Text | Print | Product List | Glossary Off
Versions: 1 2 3 4 5 6 7 8 9 10 11 12 13 14 15 16 17 18 19 20 21 22 23 24 25 26 27 28 29 30 31 32 33 34 35 36 37 38 39 40 41 42 43 44 45 46 47 48 49 50

000
ASUS43 KLSX 221859
RWRMO

WEATHER SUMMARY FOR MISSOURI
NATIONAL WEATHER SERVICE SPRINGFIELD MO
200 PM CDT THU JUN 22 2017

NOTE: "FAIR" INDICATES FEW OR NO CLOUDS BELOW 12,000 FEET WITH NO
       SIGNIFICANT WEATHER AND/OR OBSTRUCTIONS TO VISIBILITY.
       CURRENT SKY AND/OR WEATHER CONDITIONS ARE NOT AVAILABLE FOR
       CHILLICOTHE AND FARMINGTON.

MOZ001>031-035>038-043-044-053-054-222000-
...NORTHERN AND WESTERN MISSOURI...

CITY           SKY/WX    TMP DP  RH WIND       PRES   REMARKS
KANSAS CTY INT MOSUNNY   85  72  65 S13       29.71F HX  91
LEE`S SUMMIT   CLOUDY    83  71  67 S16G23    29.73F
ST JOSEPH      SUNNY     88  71  57 S14       29.68F HX  94
CHILLICOTHE      N/A     85  72  65 S12G17    29.73S HX  91

$$
MOZ066>068-077>081-088>096-101>105-222000-
...SOUTHWEST MISSOURI...

CITY           SKY/WX    TMP DP  RH WIND       PRES   REMARKS
SPRINGFIELD    CLOUDY    82  73  74 S13       29.77F
JOPLIN         PTSUNNY   85  74  69 S10       29.75F HX  92
BRANSON        PTSUNNY   79  72  78 S7        29.80F

$$
MOZ032>034-039>042-045>050-055>058-069>072-222000-
...CENTRAL MISSOURI...

CITY           SKY/WX    TMP DP  RH WIND       PRES   REMARKS
COLUMBIA       NOT AVBL
JEFFERSON CITY CLOUDY    84  71  65 SE9       29.75F
ROLLA          PTSUNNY   84  73  69 S13G22    29.78F HX  90
SEDALIA        CLOUDY    83  75  77 S10       29.76F HX  90
WARRENSBURG    CLOUDY    81  70  69 S8        29.73F

$$
MOZ051-052-059>065-222000-
...EAST CENTRAL MISSOURI...

CITY           SKY/WX    TMP DP  RH WIND       PRES   REMARKS
ST LOUIS INTL  CLOUDY    84  71  65 S12       29.81F

$$
MOZ072>076-082>087-097>100-106>115-222000-
...SOUTH CENTRAL AND SOUTHEAST MISSOURI...

CITY           SKY/WX    TMP DP  RH WIND       PRES   REMARKS
CAPE GIRARDEAU LGT RAIN  78  74  87 S12       29.83F FOG
POPLAR BLUFF   LGT RAIN  77  77 100 SE6       29.80F FOG
WEST PLAINS    CLOUDY    78  71  79 SE8       29.83F

$$



USA.gov is the U.S. government's official web portal to all federal, state and local government web resources and services.